SCP
0 0 0 0 0 0 0 0 0 0 0 0 0 0 0 0 0 0 0 0 0 0 0 0 0 0 0 0 0 0 0 0 0 0 0 0 0 0 0 0 0 -0 -0 -0 0 0 0 0 0 0 0 0 0 0
0 0 0 0 0 0 0 0 0 0 0 0 0 0 0 0 0 0 0 0 0 0 0 -0 0 -0 0 -0 0 0 0 0 0 0 0 0 0 0 0 0 0 0 0 0 0 1 0 0 0 0 0 0 0 -0
0 0 0 0 0 0 0 0 0 0 0 0 0 0 0 0 0 0 0 0 0 0 0 0 0 0 0 0 0 0 0 0 0 0 0 0 0 0 0 0 0 0 0 0 -0 0 0 0 -0 0 0 0 0 0
0 0 0 0 0 0 0 0 0 0 0 0 0 0 0 0 0 0 0 0 0 0 0 0 0 0 0 0 0 0 0 0 0 0 0 0 0 0 0 0 0 0 -0 -0 0 -0 0 0 -0 0 0 0 0 0
0 0 0 0 0 0 0 0 0 0 0 0 0 0 0 0 0 0 0 0 0 0 0 0 -0 0 0 0 0 0 0 0 0 0 0 0 0 0 0 -0 -0 0 -0 -0 0 -0 -0 -0 -0 0 0 0 0 0
0 0 0 0 0 0 0 0 0 0 0 0 0 0 0 0 0 0 0 0 0 0 0 0 0 0 0 0 0 0 0 0 0 0 0 0 0 0 0 -0 0 0 0 0 0 0 -0 0 0 0 0 -0 0 -0
0 0 0 0 0 0 0 0 0 0 0 0 0 0 0 0 0 0 0 0 0 0 0 0 0 0 0 0 0 0 0 0 0 0 0 0 0 0 0 -0 -0 -0 0 -0 0 0 -0 -0 -0 -0 0 0 -0 -0
0 0 0 0 0 0 0 0 0 0 0 0 0 0 0 0 0 0 0 0 0 0 0 0 0 0 0 0 0 0 0 0 0 0 0 0 0 0 0 -0 -0 0 0 0 -0 -0 -0 -0 -0 -0 -0 0 -0 -0
0 0 0 0 0 0 0 0 0 0 0 0 0 0 0 0 0 0 0 0 0 0 0 0 0 0 0 0 0 0 0 0 0 0 0 0 0 0 0 -0 0 -0 -0 -0 -0 -0 -0 0 0 0 0 0 -0 -0
0 0 0 0 0 0 0 0 0 0 0 0 0 0 0 0 0 0 0 0 0 0 0 0 0 0 0 0 0 0 0 0 0 0 -0 0 0 -0 -0 0 0 -0 -0 -0 -0 0 0 0 0 0 0 -0 -0 -0
0 0 0 0 0 0 0 0 0 0 0 0 0 0 0 0 0 0 0 0 0 0 0 0 0 0 0 0 0 0 0 -0 -0 -0 -0 -0 -0 -0 0 -0 -0 0 0 -0 0 0 0 0 0 -0 -0 -0 -0 0
0 0 0 0 0 0 0 0 0 0 0 0 0 0 0 0 0 0 0 0 0 0 0 0 0 0 0 0 0 0 -0 0 0 -0 -0 -0 -0 0 -0 0 -0 0 -0 0 0 0 0 0 0 0 -0 -0 -0 0
0 0 0 0 0 0 0 0 0 0 0 0 0 0 0 0 0 0 0 0 0 0 0 0 0 0 0 0 0 -0 -0 0 -0 -0 -0 0 -0 0 0 0 0 0 0 0 0 0 0 -0 0 0 -0 -0 0 0
0 0 0 0 0 0 0 0 0 0 0 0 0 0 0 0 0 0 0 0 0 0 0 0 0 0 0 0 0 0 -0 0 -0 0 -0 -0 0 0 0 0 -0 -0 0 0 0 0 0 0 0 -0 -0 0 0 0
0 0 0 0 0 0 0 0 0 0 0 0 0 0 0 0 0 -0 0 0 0 0 0 0 0 0 0 0 0 0 0 -0 0 -0 -0 0 -0 0 0 0 -0 -0 -0 0 0 -0 -0 0 0 0 -0 0 0 0
0 0 0 0 0 0 0 0 0 0 0 0 0 0 0 0 0 0 0 0 0 0 0 0 0 0 0 0 0 0 0 -0 -0 -0 -0 -0 -0 0 0 0 -0 -0 0 -0 -0 -0 -0 -0 0 -0 -0 0 0 0
0 0 0 0 0 0 0 0 0 0 0 0 0 0 0 0 0 0 0 0 0 0 0 0 0 0 0 0 0 0 0 -0 -0 0 -0 -0 -0 0 0 0 -0 -0 0 -0 -0 -0 -0 0 0 0 -0 0 0 0
0 0 0 0 0 0 0 0 0 0 0 0 0 0 0 0 0 0 0 0 0 0 0 0 0 0 0 0 0 0 -0 -0 -0 0 0 -0 -0 -0 0 0 -0 -0 -0 -0 -0 -0 -0 0 0 -0 0 0 0 0
0 0 -0 0 0 0 0 0 0 0 0 0 0 0 0 0 0 0 0 0 0 0 0 0 0 0 0 0 0 0 0 0 0 -0 -0 -0 0 -0 0 -0 0 -0 0 -0 -0 -0 0 0 0 0 0 0 0 0
0 0 0 0 0 0 0 0 0 0 0 0 0 -0 -0 0 0 -0 -0 -0 -0 -0 -0 -0 -0 -0 0 0 0 0 0 0 -0 0 -0 0 0 -0 0 -0 0 -0 -0 0 -0 0 0 0 0 -0 -0 -0 0 0
0 0 0 0 0 0 0 0 0 0 0 0 -0 0 0 0 0 0 0 0 -0 -0 -0 -0 -0 0 0 0 0 0 0 0 0 0 -0 0 0 -0 0 0 -0 -0 -0 -0 -0 -0 0 0 0 0 0 0 0 0
0 0 0 0 0 0 0 0 0 0 0 0 0 -0 0 0 0 0 0 0 0 0 0 0 -0 0 0 0 0 0 0 0 0 0 -0 0 0 -0 -0 0 0 -0 -0 0 -0 -0 -0 -0 0 0 0 -0 0 0
0 0 0 0 0 0 0 0 0 -0 -0 0 0 0 0 0 0 0 0 0 0 0 0 0 0 -0 0 0 0 0 -0 0 0 0 0 0 0 0 -0 0 -0 0 -0 -0 -0 -0 0 -0 -0 0 0 -0 -0 -0
0 0 -0 -0 -0 0 0 -0 -0 0 0 0 0 0 0 0 0 0 0 0 0 0 0 0 0 0 0 0 0 0 0 -0 0 0 0 0 0 0 -0 0 0 -0 -0 -0 -0 -0 -0 -0 -0 -0 -0 -0 -0 -0
0 0 -0 0 0 0 -0 -0 -0 -0 0 0 0 0 0 0 0 0 0 0 0 0 0 0 0 0 0 0 0 0 0 0 0 0 0 0 0 0 0 0 0 0 0 0 -0 -0 0 -0 -0 -0 -0 -0 -0 -0
0 0 0 0 0 0 0 -0 0 -0 -0 0 0 0 0 0 0 0 0 0 0 0 0 0 0 0 0 0 0 0 0 0 0 0 0 -0 0 -0 0 0 0 0 0 0 -0 0 -0 -0 0 -0 -0 0 -0 -0
0 0 0 0 0 -0 0 0 0 0 0 0 0 0 0 0 0 0 0 0 0 0 0 0 0 0 0 0 0 0 0 0 0 0 -0 -0 -0 -0 0 0 0 0 0 0 0 -0 -0 -0 0 0 -0 -0 -0 -0
0 0 0 0 0 -0 0 0 0 0 0 0 0 0 0 0 0 0 0 0 0 0 0 0 0 0 0 0 0 0 0 0 0 0 0 0 0 0 0 0 0 0 0 0 0 0 0 -0 0 0 -0 -0 0 -0
0 0 0 -0 0 0 0 0 0 0 0 0 0 0 0 0 0 0 0 0 0 0 0 0 0 0 0 0 0 0 0 -0 -0 0 -0 0 0 0 0 -0 -0 0 0 0 0 0 -0 0 0 0 0 -0 -0 -0
0 0 0 0 0 0 0 0 0 0 0 0 0 0 0 0 0 0 0 0 0 0 0 -0 0 -0 -0 -0 -0 -0 -0 -0 -0 -0 -0 0 0 0 0 -0 0 0 0 -0 -0 0 0 0 -0 -0 -0 -0 0 -0
0 0 0 0 0 0 0 0 0 0 0 0 0 0 0 0 0 0 0 0 -0 -0 -0 0 0 0 -0 -0 -0 -0 -0 -0 0 0 0 -0 0 -0 0 0 0 -0 -0 -0 -0 -0 -0 -0 -0 -0 -0 -0 -0 -0
0 0 0 0 0 0 0 0 0 0 0 0 0 0 0 0 0 0 0 0 0 0 0 0 0 0 0 -0 -0 -0 -0 -0 0 0 0 0 -0 -0 -0 0 -0 -0 0 -0 -0 -0 -0 -0 -0 0 0 0 0 -0
0 0 0 0 0 0 0 0 0 0 0 0 0 0 0 0 0 0 0 0 0 -0 -0 -0 0 -0 -0 -0 -0 -0 -0 -0 -0 -0 0 -0 0 -0 0 0 0 0 0 0 0 0 0 0 0 0 0 -0 -0 -0
Wind_Speed_500mb
48 43 45 44 41 38 36 34 34 32 30 28 26 25 26 26 26 21 11 19 17 24 55 28 23 37 37 32 18 26 20 13 15 15 14 17 15 21 26 35 19 15 14 17 18 20 27 9 21 2 26 47 38 36
45 43 40 41 38 35 34 32 31 30 27 25 25 24 24 23 24 20 8 17 23 32 45 60 43 46 39 35 38 22 21 33 10 4 10 9 23 24 34 26 31 22 18 11 11 10 36 70 64 52 64 39 33 48
43 40 38 37 35 31 31 28 28 26 24 24 23 23 23 23 22 23 22 19 27 32 58 19 18 10 10 15 21 30 28 20 20 16 17 9 13 18 16 25 36 31 41 16 13 27 41 54 72 67 33 33 50 55
41 39 36 36 32 30 28 27 26 22 21 22 20 22 25 25 22 24 25 20 19 18 15 7 2 29 35 40 40 39 40 32 21 21 15 8 11 24 21 33 34 31 37 29 39 48 56 57 56 54 38 47 46 38
39 36 36 36 32 29 27 27 26 24 25 24 21 24 27 28 26 27 30 21 17 20 16 49 63 29 13 17 18 22 21 30 30 11 10 10 37 24 36 32 30 40 30 20 18 44 50 59 52 25 32 33 43 50
37 37 37 34 31 31 30 30 29 27 28 27 24 27 29 27 24 24 5 20 16 7 18 10 32 27 8 12 19 26 29 27 22 11 10 12 25 17 8 17 36 43 66 62 46 56 67 36 36 31 36 42 34 39
38 36 34 33 32 31 31 31 31 30 28 27 28 31 28 26 24 15 10 3 17 4 17 16 16 12 13 20 26 20 15 16 17 9 11 18 38 20 5 18 51 61 52 44 26 32 21 33 29 32 30 31 37 38
36 34 32 30 30 29 28 28 28 28 29 29 31 28 25 27 31 19 11 18 19 14 15 8 12 24 2 17 14 18 13 12 14 10 9 14 20 15 8 26 63 31 32 28 33 34 36 42 25 31 31 36 38 40
33 32 31 29 28 27 27 25 26 28 27 24 24 21 21 9 7 12 14 15 9 13 9 12 14 15 6 21 24 27 11 9 9 11 11 8 5 2 16 41 56 35 23 31 39 41 33 38 40 32 35 34 36 35
32 30 29 27 26 25 24 24 23 19 15 13 13 7 10 7 6 5 8 8 16 15 16 22 32 21 28 19 12 19 10 7 7 12 8 6 3 18 41 57 43 29 25 32 45 40 36 33 32 33 33 29 30 33
31 28 26 24 22 21 18 16 12 6 4 4 8 3 6 14 8 12 13 14 16 10 16 19 25 18 9 12 13 7 8 9 7 5 3 3 2 25 60 60 26 19 28 39 30 28 29 28 28 29 27 28 30 33
28 26 23 21 19 17 15 14 9 12 8 10 17 24 15 9 13 11 8 11 13 9 15 9 11 19 18 10 8 6 5 8 6 8 4 7 12 53 57 36 30 11 27 33 30 29 28 29 26 26 25 26 30 33
26 21 20 19 17 16 14 12 12 13 7 5 6 7 9 11 6 11 17 9 11 12 9 9 11 15 13 10 7 7 9 9 21 5 4 5 29 50 48 38 30 4 18 32 31 27 28 27 29 28 28 30 32 38
23 23 21 18 14 13 14 11 11 7 4 10 10 8 10 12 13 15 19 10 4 9 12 15 17 7 7 7 9 6 8 4 3 5 5 9 33 51 42 35 22 20 21 29 31 26 26 27 30 33 27 32 39 47
24 21 17 18 20 18 17 14 18 10 8 10 11 10 14 28 31 21 15 13 11 12 16 15 20 18 12 7 6 7 6 4 4 4 7 25 42 39 34 32 21 16 16 26 25 22 24 25 39 36 34 38 43 41
29 22 20 17 20 24 19 18 20 14 9 11 17 16 24 23 26 30 27 24 12 15 17 11 7 9 8 6 8 9 4 2 4 4 12 18 34 34 21 25 21 14 19 20 25 21 24 33 35 36 44 49 44 47
25 15 19 18 16 21 24 26 19 14 13 13 17 31 40 42 34 39 24 25 27 29 15 10 7 10 7 7 12 7 5 5 11 6 10 16 30 28 15 18 16 15 19 19 26 25 31 41 42 46 46 45 40 41
23 19 12 9 20 24 22 22 9 12 16 28 36 43 44 41 40 38 37 33 22 23 24 16 14 13 9 15 17 6 6 11 8 13 14 16 27 21 11 15 10 16 20 22 27 31 39 23 27 45 44 41 52 49
20 12 25 20 30 25 17 18 22 13 28 36 42 43 43 42 40 40 40 38 38 39 36 34 12 15 20 32 30 29 22 15 20 20 15 10 18 9 9 8 16 21 27 24 30 34 25 27 30 35 31 38 40 38
22 28 23 23 27 8 7 11 16 16 19 31 36 41 46 43 39 39 43 42 43 43 34 25 25 33 27 10 16 10 14 17 12 14 11 12 20 4 8 3 18 27 33 36 43 38 26 27 32 37 41 36 38 38
22 14 16 17 17 21 10 11 15 20 26 38 41 34 26 30 34 33 34 37 44 45 38 47 50 49 37 30 24 18 22 19 20 20 18 17 13 7 2 9 13 24 31 35 31 24 25 23 32 32 33 36 35 35
21 24 19 21 12 12 18 26 19 20 24 38 46 43 25 26 33 44 40 23 19 48 53 57 52 47 45 40 34 31 30 25 22 19 13 7 6 8 7 4 8 28 24 32 29 24 26 29 29 33 34 35 33 32
16 19 13 15 15 11 16 22 19 17 9 11 17 10 13 13 16 23 13 24 44 60 64 63 59 56 43 37 34 35 28 24 21 19 10 10 9 10 5 4 5 20 33 38 35 26 25 30 28 20 29 34 38 38
14 9 9 12 21 12 17 16 16 13 14 11 7 9 9 14 16 17 11 30 39 38 63 70 65 48 45 45 45 39 28 19 21 17 14 15 15 18 8 8 6 21 24 31 35 26 25 23 26 26 26 25 28 30
9 12 12 15 14 11 11 16 38 22 10 9 10 10 7 12 6 9 12 14 34 39 48 58 66 63 54 45 40 37 30 27 23 18 18 20 20 21 17 10 8 20 24 28 25 30 25 22 24 24 23 22 26 28
12 14 15 11 13 12 8 7 6 9 18 8 11 7 9 6 8 10 3 19 33 39 48 55 59 56 48 42 39 34 31 27 20 22 26 23 24 28 21 15 11 21 20 22 27 25 26 27 23 26 27 28 27 27
10 13 26 36 35 30 14 19 28 17 10 7 4 4 5 7 4 4 9 21 29 34 40 45 43 40 39 33 26 25 22 27 28 21 21 26 26 28 20 16 15 22 22 23 24 25 26 27 28 26 27 28 28 27
19 15 20 22 8 7 9 11 8 7 5 8 6 6 4 5 2 4 7 20 32 36 37 37 35 32 29 24 31 36 30 27 28 31 34 32 27 20 17 18 13 29 29 27 26 26 26 26 28 29 28 27 28 28
21 26 28 30 23 11 10 9 9 11 11 6 4 5 6 2 7 10 16 27 23 30 35 37 36 33 38 37 38 30 34 39 46 40 36 33 27 26 28 28 30 28 27 29 27 29 29 31 32 31 30 29 30 30
34 27 13 8 8 9 15 23 28 47 48 30 18 17 7 21 26 36 32 35 36 40 48 49 47 46 44 38 41 46 41 42 35 34 35 32 33 32 33 34 29 28 30 29 35 37 33 38 39 36 35 34 33 32
13 11 13 18 16 35 43 45 42 43 37 17 10 7 28 18 40 28 36 44 50 48 40 39 42 44 42 42 38 38 40 31 32 30 30 33 34 37 32 32 31 30 29 31 33 36 37 34 33 32 31 31 30 32
21 23 26 25 27 25 20 8 7 7 15 24 33 36 20 34 19 18 22 28 35 39 39 34 38 45 40 37 33 34 33 31 26 29 33 32 37 37 27 31 30 31 31 33 32 32 29 28 28 28 30 27 30 33
29 28 28 22 12 2 5 3 7 9 15 13 24 28 24 16 13 15 32 34 34 34 37 36 41 36 35 33 37 42 27 36 33 28 38 36 25 39 30 31 33 31 28 27 27 28 28 28 31 34 35 33 29 24
Wind_Direction_500mb
273 270 278 283 293 296 304 307 308 312 314 319 324 326 330 331 339 357 334 321 338 301 291 292 310 303 298 292 294 313 346 7 327 305 288 307 298 308 316 313 306 289 298 280 276 286 280 69 349 96 302 313 308 305
258 266 268 278 286 293 296 300 305 309 308 311 315 318 324 326 329 338 325 328 318 296 277 291 292 274 265 272 268 270 279 295 263 324 336 321 308 303 288 289 307 297 297 289 276 252 308 309 309 311 313 318 307 314
257 260 267 275 282 286 288 293 299 304 305 304 305 312 316 318 318 317 308 305 304 308 313 328 343 208 237 246 256 257 277 305 303 259 294 276 275 298 299 294 299 305 307 300 302 272 282 294 300 301 316 302 314 322
252 259 265 271 276 276 279 288 297 307 309 311 302 313 315 312 310 306 301 294 290 292 288 301 243 301 282 274 265 240 278 267 276 273 269 258 269 283 286 295 291 290 290 287 287 286 296 293 296 307 305 317 318 315
252 258 263 265 266 270 276 282 287 295 301 311 309 314 314 310 312 308 296 277 277 255 294 298 303 298 298 229 269 246 244 238 251 246 245 253 272 295 282 279 274 286 276 280 281 302 288 298 311 328 326 323 313 327
253 256 257 257 261 266 271 276 280 288 294 299 303 310 309 308 317 338 354 189 188 268 300 306 305 291 264 233 246 258 268 239 227 203 239 249 254 269 275 282 287 303 318 310 312 312 304 323 348 328 333 333 331 323
249 250 251 253 257 263 269 272 275 278 287 295 302 304 302 301 298 265 289 210 199 252 283 291 288 203 214 263 272 270 218 238 224 231 233 252 267 253 246 277 290 310 328 331 337 343 327 347 329 339 349 339 332 334
245 245 247 250 255 260 265 270 272 276 282 293 299 297 294 292 290 288 240 249 246 267 263 273 272 282 274 304 323 287 268 219 215 242 255 248 275 220 249 333 334 343 341 355 359 352 331 318 343 356 351 343 345 344
240 241 243 247 251 258 264 268 271 278 291 299 299 299 293 266 235 211 247 265 199 229 259 245 274 298 356 344 321 305 262 253 211 209 228 249 261 250 339 326 325 339 321 346 346 339 343 349 352 356 354 354 351 2
235 237 241 245 248 253 259 267 274 288 298 300 290 244 213 133 181 341 283 205 197 220 232 267 280 277 299 329 307 316 286 250 225 217 182 212 179 338 340 340 323 310 350 358 350 350 3 1 2 359 1 358 7 12
231 234 237 240 243 246 250 257 270 278 88 299 258 17 1 327 293 238 209 211 195 232 220 248 252 287 290 280 299 307 322 283 280 92 260 195 10 346 339 340 348 4 7 350 358 1 3 3 3 5 10 13 17 37
225 227 229 230 231 236 245 252 231 195 277 263 304 316 298 246 229 247 221 210 198 252 166 222 225 227 240 236 259 273 286 282 277 308 4 351 3 337 339 354 340 19 5 10 12 8 14 15 19 23 23 28 41 57
218 217 221 226 228 234 239 241 233 237 233 269 244 246 224 227 221 230 217 216 197 207 184 212 237 223 226 210 222 235 236 247 318 4 322 36 324 329 344 346 338 358 36 27 24 26 21 31 35 36 50 46 68 78
204 213 220 224 215 222 233 234 199 175 195 239 226 235 236 206 222 200 239 272 153 183 185 239 274 271 273 236 246 243 251 308 312 314 15 321 327 329 344 342 347 16 41 40 28 23 31 41 49 54 57 71 78 87
206 212 217 215 216 223 230 216 189 179 246 243 236 237 234 244 268 281 247 167 204 219 204 254 270 251 253 257 263 267 262 192 264 17 312 321 322 332 340 360 11 36 46 38 28 38 49 62 53 62 72 87 97 87
219 214 216 223 228 224 215 199 196 217 242 240 238 243 258 275 266 240 238 256 215 217 221 236 257 266 255 224 225 247 208 13 68 207 308 326 328 338 345 5 2 57 70 54 36 66 73 78 70 71 75 79 107 88
192 198 199 195 217 204 192 188 207 220 234 235 242 244 254 276 285 282 293 243 219 213 222 223 234 218 239 239 255 279 5 358 289 227 358 358 338 342 342 9 14 75 77 59 53 85 95 82 83 82 86 78 86 91
190 194 173 168 180 179 197 210 241 235 245 249 263 266 270 270 271 263 260 260 261 237 234 236 264 247 240 246 244 260 307 283 32 44 18 351 344 346 348 3 71 67 98 58 69 104 100 70 85 83 91 84 77 83
187 228 170 177 183 195 198 204 220 257 238 253 260 263 263 262 259 255 253 248 246 246 250 249 237 245 250 257 275 291 295 329 7 343 346 354 346 344 15 34 91 90 87 91 109 107 68 61 85 99 84 83 96 76
208 186 165 180 197 235 243 233 210 247 265 272 275 269 261 255 254 248 241 240 237 235 231 232 231 232 238 329 338 259 291 308 312 315 348 350 341 289 353 131 130 127 102 92 113 80 75 75 80 102 99 89 93 99
207 203 196 191 210 232 274 258 233 255 272 271 269 276 268 277 280 273 271 255 240 226 228 230 233 238 245 255 268 293 291 301 305 316 341 325 315 299 190 133 160 147 124 116 108 109 99 84 91 98 105 98 107 111
192 201 198 200 229 233 244 236 243 252 276 264 273 274 261 258 259 262 267 263 256 238 232 231 230 232 232 238 254 262 266 269 272 278 302 295 280 256 257 146 142 139 133 130 115 119 115 109 115 104 108 107 108 109
176 182 214 205 219 247 252 234 237 239 250 271 273 254 245 228 231 233 231 236 237 228 224 226 228 229 233 234 238 260 245 249 256 254 234 240 236 213 258 115 194 127 129 137 126 126 122 123 121 118 113 116 114 107
193 205 223 216 212 257 257 226 228 244 241 246 247 251 234 218 204 202 237 239 234 215 213 214 216 219 223 231 238 241 237 233 234 236 224 214 205 187 198 132 122 137 131 135 135 142 132 134 132 129 129 123 116 115
208 231 216 241 232 229 255 252 245 236 252 229 235 227 206 180 219 233 239 256 229 195 197 196 203 208 213 219 222 225 228 226 223 223 211 202 192 179 174 150 117 138 140 136 143 148 150 143 140 141 142 133 129 124
226 226 208 231 226 226 248 291 285 275 280 249 236 237 215 217 232 240 227 186 173 174 170 179 186 192 198 205 208 206 195 198 208 202 186 183 176 163 156 157 163 136 145 146 151 149 152 151 145 143 149 150 140 132
242 249 223 238 261 281 286 274 282 273 275 262 268 247 232 219 235 61 54 91 118 137 155 165 172 175 178 184 163 162 184 180 181 181 165 159 167 169 165 168 155 147 145 143 145 147 144 144 144 143 143 146 148 145
241 278 287 294 281 272 288 295 282 263 252 237 302 252 267 8 24 352 90 83 121 135 145 149 146 150 158 163 152 149 157 162 161 146 143 139 146 155 161 146 137 143 141 139 140 139 140 141 140 138 137 139 143 147
243 261 278 290 297 264 244 236 246 251 266 319 268 271 284 347 125 125 123 135 119 126 128 131 130 137 138 144 150 150 145 149 151 148 140 142 146 142 146 146 143 131 129 137 145 140 137 136 135 135 132 130 133 137
248 252 257 250 238 246 234 223 253 271 282 274 273 277 268 109 125 127 116 127 133 134 132 131 133 138 138 135 132 139 142 146 145 144 139 151 140 141 142 142 135 133 134 129 124 130 131 131 128 127 125 124 127 129
245 234 237 238 256 272 272 272 288 290 287 295 273 165 119 73 91 120 120 126 128 126 132 138 139 141 140 143 142 142 137 141 147 148 141 143 134 133 137 138 133 132 132 134 136 134 133 129 129 129 129 129 132 127
236 247 258 271 274 297 315 239 214 115 65 42 29 67 97 84 77 60 108 132 126 136 134 135 131 140 140 137 133 135 141 146 156 145 148 141 141 133 131 141 140 136 138 132 133 137 135 135 135 133 129 125 120 123
246 253 254 275 280 233 192 169 81 58 61 41 16 34 38 38 62 67 116 128 126 128 129 125 126 120 123 123 128 133 125 142 148 141 147 149 137 137 134 135 132 131 137 141 142 138 133 130 128 134 135 129 126 130
Wind_Speed_850mb
48 43 45 44 41 38 36 34 34 32 30 28 26 25 26 26 26 21 11 19 17 24 55 28 23 37 37 32 18 26 20 13 15 15 14 17 15 21 26 35 19 15 14 17 18 20 27 9 21 2 26 47 38 36
45 43 40 41 38 35 34 32 31 30 27 25 25 24 24 23 24 20 8 17 23 32 45 60 43 46 39 35 38 22 21 33 10 4 10 9 23 24 34 26 31 22 18 11 11 10 36 70 64 52 64 39 33 48
43 40 38 37 35 31 31 28 28 26 24 24 23 23 23 23 22 23 22 19 27 32 58 19 18 10 10 15 21 30 28 20 20 16 17 9 13 18 16 25 36 31 41 16 13 27 41 54 72 67 33 33 50 55
41 39 36 36 32 30 28 27 26 22 21 22 20 22 25 25 22 24 25 20 19 18 15 7 2 29 35 40 40 39 40 32 21 21 15 8 11 24 21 33 34 31 37 29 39 48 56 57 56 54 38 47 46 38
39 36 36 36 32 29 27 27 26 24 25 24 21 24 27 28 26 27 30 21 17 20 16 49 63 29 13 17 18 22 21 30 30 11 10 10 37 24 36 32 30 40 30 20 18 44 50 59 52 25 32 33 43 50
37 37 37 34 31 31 30 30 29 27 28 27 24 27 29 27 24 24 5 20 16 7 18 10 32 27 8 12 19 26 29 27 22 11 10 12 25 17 8 17 36 43 66 62 46 56 67 36 36 31 36 42 34 39
38 36 34 33 32 31 31 31 31 30 28 27 28 31 28 26 24 15 10 3 17 4 17 16 16 12 13 20 26 20 15 16 17 9 11 18 38 20 5 18 51 61 52 44 26 32 21 33 29 32 30 31 37 38
36 34 32 30 30 29 28 28 28 28 29 29 31 28 25 27 31 19 11 18 19 14 15 8 12 24 2 17 14 18 13 12 14 10 9 14 20 15 8 26 63 31 32 28 33 34 36 42 25 31 31 36 38 40
33 32 31 29 28 27 27 25 26 28 27 24 24 21 21 9 7 12 14 15 9 13 9 12 14 15 6 21 24 27 11 9 9 11 11 8 5 2 16 41 56 35 23 31 39 41 33 38 40 32 35 34 36 35
32 30 29 27 26 25 24 24 23 19 15 13 13 7 10 7 6 5 8 8 16 15 16 22 32 21 28 19 12 19 10 7 7 12 8 6 3 18 41 57 43 29 25 32 45 40 36 33 32 33 33 29 30 33
31 28 26 24 22 21 18 16 12 6 4 4 8 3 6 14 8 12 13 14 16 10 16 19 25 18 9 12 13 7 8 9 7 5 3 3 2 25 60 60 26 19 28 39 30 28 29 28 28 29 27 28 30 33
28 26 23 21 19 17 15 14 9 12 8 10 17 24 15 9 13 11 8 11 13 9 15 9 11 19 18 10 8 6 5 8 6 8 4 7 12 53 57 36 30 11 27 33 30 29 28 29 26 26 25 26 30 33
26 21 20 19 17 16 14 12 12 13 7 5 6 7 9 11 6 11 17 9 11 12 9 9 11 15 13 10 7 7 9 9 21 5 4 5 29 50 48 38 30 4 18 32 31 27 28 27 29 28 28 30 32 38
23 23 21 18 14 13 14 11 11 7 4 10 10 8 10 12 13 15 19 10 4 9 12 15 17 7 7 7 9 6 8 4 3 5 5 9 33 51 42 35 22 20 21 29 31 26 26 27 30 33 27 32 39 47
24 21 17 18 20 18 17 14 18 10 8 10 11 10 14 28 31 21 15 13 11 12 16 15 20 18 12 7 6 7 6 4 4 4 7 25 42 39 34 32 21 16 16 26 25 22 24 25 39 36 34 38 43 41
29 22 20 17 20 24 19 18 20 14 9 11 17 16 24 23 26 30 27 24 12 15 17 11 7 9 8 6 8 9 4 2 4 4 12 18 34 34 21 25 21 14 19 20 25 21 24 33 35 36 44 49 44 47
25 15 19 18 16 21 24 26 19 14 13 13 17 31 40 42 34 39 24 25 27 29 15 10 7 10 7 7 12 7 5 5 11 6 10 16 30 28 15 18 16 15 19 19 26 25 31 41 42 46 46 45 40 41
23 19 12 9 20 24 22 22 9 12 16 28 36 43 44 41 40 38 37 33 22 23 24 16 14 13 9 15 17 6 6 11 8 13 14 16 27 21 11 15 10 16 20 22 27 31 39 23 27 45 44 41 52 49
20 12 25 20 30 25 17 18 22 13 28 36 42 43 43 42 40 40 40 38 38 39 36 34 12 15 20 32 30 29 22 15 20 20 15 10 18 9 9 8 16 21 27 24 30 34 25 27 30 35 31 38 40 38
22 28 23 23 27 8 7 11 16 16 19 31 36 41 46 43 39 39 43 42 43 43 34 25 25 33 27 10 16 10 14 17 12 14 11 12 20 4 8 3 18 27 33 36 43 38 26 27 32 37 41 36 38 38
22 14 16 17 17 21 10 11 15 20 26 38 41 34 26 30 34 33 34 37 44 45 38 47 50 49 37 30 24 18 22 19 20 20 18 17 13 7 2 9 13 24 31 35 31 24 25 23 32 32 33 36 35 35
21 24 19 21 12 12 18 26 19 20 24 38 46 43 25 26 33 44 40 23 19 48 53 57 52 47 45 40 34 31 30 25 22 19 13 7 6 8 7 4 8 28 24 32 29 24 26 29 29 33 34 35 33 32
16 19 13 15 15 11 16 22 19 17 9 11 17 10 13 13 16 23 13 24 44 60 64 63 59 56 43 37 34 35 28 24 21 19 10 10 9 10 5 4 5 20 33 38 35 26 25 30 28 20 29 34 38 38
14 9 9 12 21 12 17 16 16 13 14 11 7 9 9 14 16 17 11 30 39 38 63 70 65 48 45 45 45 39 28 19 21 17 14 15 15 18 8 8 6 21 24 31 35 26 25 23 26 26 26 25 28 30
9 12 12 15 14 11 11 16 38 22 10 9 10 10 7 12 6 9 12 14 34 39 48 58 66 63 54 45 40 37 30 27 23 18 18 20 20 21 17 10 8 20 24 28 25 30 25 22 24 24 23 22 26 28
12 14 15 11 13 12 8 7 6 9 18 8 11 7 9 6 8 10 3 19 33 39 48 55 59 56 48 42 39 34 31 27 20 22 26 23 24 28 21 15 11 21 20 22 27 25 26 27 23 26 27 28 27 27
10 13 26 36 35 30 14 19 28 17 10 7 4 4 5 7 4 4 9 21 29 34 40 45 43 40 39 33 26 25 22 27 28 21 21 26 26 28 20 16 15 22 22 23 24 25 26 27 28 26 27 28 28 27
19 15 20 22 8 7 9 11 8 7 5 8 6 6 4 5 2 4 7 20 32 36 37 37 35 32 29 24 31 36 30 27 28 31 34 32 27 20 17 18 13 29 29 27 26 26 26 26 28 29 28 27 28 28
21 26 28 30 23 11 10 9 9 11 11 6 4 5 6 2 7 10 16 27 23 30 35 37 36 33 38 37 38 30 34 39 46 40 36 33 27 26 28 28 30 28 27 29 27 29 29 31 32 31 30 29 30 30
34 27 13 8 8 9 15 23 28 47 48 30 18 17 7 21 26 36 32 35 36 40 48 49 47 46 44 38 41 46 41 42 35 34 35 32 33 32 33 34 29 28 30 29 35 37 33 38 39 36 35 34 33 32
13 11 13 18 16 35 43 45 42 43 37 17 10 7 28 18 40 28 36 44 50 48 40 39 42 44 42 42 38 38 40 31 32 30 30 33 34 37 32 32 31 30 29 31 33 36 37 34 33 32 31 31 30 32
21 23 26 25 27 25 20 8 7 7 15 24 33 36 20 34 19 18 22 28 35 39 39 34 38 45 40 37 33 34 33 31 26 29 33 32 37 37 27 31 30 31 31 33 32 32 29 28 28 28 30 27 30 33
29 28 28 22 12 2 5 3 7 9 15 13 24 28 24 16 13 15 32 34 34 34 37 36 41 36 35 33 37 42 27 36 33 28 38 36 25 39 30 31 33 31 28 27 27 28 28 28 31 34 35 33 29 24
Wind_Direction_850mb
273 270 278 283 293 296 304 307 308 312 314 319 324 326 330 331 339 357 334 321 338 301 291 292 310 303 298 292 294 313 346 7 327 305 288 307 298 308 316 313 306 289 298 280 276 286 280 69 349 96 302 313 308 305
258 266 268 278 286 293 296 300 305 309 308 311 315 318 324 326 329 338 325 328 318 296 277 291 292 274 265 272 268 270 279 295 263 324 336 321 308 303 288 289 307 297 297 289 276 252 308 309 309 311 313 318 307 314
257 260 267 275 282 286 288 293 299 304 305 304 305 312 316 318 318 317 308 305 304 308 313 328 343 208 237 246 256 257 277 305 303 259 294 276 275 298 299 294 299 305 307 300 302 272 282 294 300 301 316 302 314 322
252 259 265 271 276 276 279 288 297 307 309 311 302 313 315 312 310 306 301 294 290 292 288 301 243 301 282 274 265 240 278 267 276 273 269 258 269 283 286 295 291 290 290 287 287 286 296 293 296 307 305 317 318 315
252 258 263 265 266 270 276 282 287 295 301 311 309 314 314 310 312 308 296 277 277 255 294 298 303 298 298 229 269 246 244 238 251 246 245 253 272 295 282 279 274 286 276 280 281 302 288 298 311 328 326 323 313 327
253 256 257 257 261 266 271 276 280 288 294 299 303 310 309 308 317 338 354 189 188 268 300 306 305 291 264 233 246 258 268 239 227 203 239 249 254 269 275 282 287 303 318 310 312 312 304 323 348 328 333 333 331 323
249 250 251 253 257 263 269 272 275 278 287 295 302 304 302 301 298 265 289 210 199 252 283 291 288 203 214 263 272 270 218 238 224 231 233 252 267 253 246 277 290 310 328 331 337 343 327 347 329 339 349 339 332 334
245 245 247 250 255 260 265 270 272 276 282 293 299 297 294 292 290 288 240 249 246 267 263 273 272 282 274 304 323 287 268 219 215 242 255 248 275 220 249 333 334 343 341 355 359 352 331 318 343 356 351 343 345 344
240 241 243 247 251 258 264 268 271 278 291 299 299 299 293 266 235 211 247 265 199 229 259 245 274 298 356 344 321 305 262 253 211 209 228 249 261 250 339 326 325 339 321 346 346 339 343 349 352 356 354 354 351 2
235 237 241 245 248 253 259 267 274 288 298 300 290 244 213 133 181 341 283 205 197 220 232 267 280 277 299 329 307 316 286 250 225 217 182 212 179 338 340 340 323 310 350 358 350 350 3 1 2 359 1 358 7 12
231 234 237 240 243 246 250 257 270 278 88 299 258 17 1 327 293 238 209 211 195 232 220 248 252 287 290 280 299 307 322 283 280 92 260 195 10 346 339 340 348 4 7 350 358 1 3 3 3 5 10 13 17 37
225 227 229 230 231 236 245 252 231 195 277 263 304 316 298 246 229 247 221 210 198 252 166 222 225 227 240 236 259 273 286 282 277 308 4 351 3 337 339 354 340 19 5 10 12 8 14 15 19 23 23 28 41 57
218 217 221 226 228 234 239 241 233 237 233 269 244 246 224 227 221 230 217 216 197 207 184 212 237 223 226 210 222 235 236 247 318 4 322 36 324 329 344 346 338 358 36 27 24 26 21 31 35 36 50 46 68 78
204 213 220 224 215 222 233 234 199 175 195 239 226 235 236 206 222 200 239 272 153 183 185 239 274 271 273 236 246 243 251 308 312 314 15 321 327 329 344 342 347 16 41 40 28 23 31 41 49 54 57 71 78 87
206 212 217 215 216 223 230 216 189 179 246 243 236 237 234 244 268 281 247 167 204 219 204 254 270 251 253 257 263 267 262 192 264 17 312 321 322 332 340 360 11 36 46 38 28 38 49 62 53 62 72 87 97 87
219 214 216 223 228 224 215 199 196 217 242 240 238 243 258 275 266 240 238 256 215 217 221 236 257 266 255 224 225 247 208 13 68 207 308 326 328 338 345 5 2 57 70 54 36 66 73 78 70 71 75 79 107 88
192 198 199 195 217 204 192 188 207 220 234 235 242 244 254 276 285 282 293 243 219 213 222 223 234 218 239 239 255 279 5 358 289 227 358 358 338 342 342 9 14 75 77 59 53 85 95 82 83 82 86 78 86 91
190 194 173 168 180 179 197 210 241 235 245 249 263 266 270 270 271 263 260 260 261 237 234 236 264 247 240 246 244 260 307 283 32 44 18 351 344 346 348 3 71 67 98 58 69 104 100 70 85 83 91 84 77 83
187 228 170 177 183 195 198 204 220 257 238 253 260 263 263 262 259 255 253 248 246 246 250 249 237 245 250 257 275 291 295 329 7 343 346 354 346 344 15 34 91 90 87 91 109 107 68 61 85 99 84 83 96 76
208 186 165 180 197 235 243 233 210 247 265 272 275 269 261 255 254 248 241 240 237 235 231 232 231 232 238 329 338 259 291 308 312 315 348 350 341 289 353 131 130 127 102 92 113 80 75 75 80 102 99 89 93 99
207 203 196 191 210 232 274 258 233 255 272 271 269 276 268 277 280 273 271 255 240 226 228 230 233 238 245 255 268 293 291 301 305 316 341 325 315 299 190 133 160 147 124 116 108 109 99 84 91 98 105 98 107 111
192 201 198 200 229 233 244 236 243 252 276 264 273 274 261 258 259 262 267 263 256 238 232 231 230 232 232 238 254 262 266 269 272 278 302 295 280 256 257 146 142 139 133 130 115 119 115 109 115 104 108 107 108 109
176 182 214 205 219 247 252 234 237 239 250 271 273 254 245 228 231 233 231 236 237 228 224 226 228 229 233 234 238 260 245 249 256 254 234 240 236 213 258 115 194 127 129 137 126 126 122 123 121 118 113 116 114 107
193 205 223 216 212 257 257 226 228 244 241 246 247 251 234 218 204 202 237 239 234 215 213 214 216 219 223 231 238 241 237 233 234 236 224 214 205 187 198 132 122 137 131 135 135 142 132 134 132 129 129 123 116 115
208 231 216 241 232 229 255 252 245 236 252 229 235 227 206 180 219 233 239 256 229 195 197 196 203 208 213 219 222 225 228 226 223 223 211 202 192 179 174 150 117 138 140 136 143 148 150 143 140 141 142 133 129 124
226 226 208 231 226 226 248 291 285 275 280 249 236 237 215 217 232 240 227 186 173 174 170 179 186 192 198 205 208 206 195 198 208 202 186 183 176 163 156 157 163 136 145 146 151 149 152 151 145 143 149 150 140 132
242 249 223 238 261 281 286 274 282 273 275 262 268 247 232 219 235 61 54 91 118 137 155 165 172 175 178 184 163 162 184 180 181 181 165 159 167 169 165 168 155 147 145 143 145 147 144 144 144 143 143 146 148 145
241 278 287 294 281 272 288 295 282 263 252 237 302 252 267 8 24 352 90 83 121 135 145 149 146 150 158 163 152 149 157 162 161 146 143 139 146 155 161 146 137 143 141 139 140 139 140 141 140 138 137 139 143 147
243 261 278 290 297 264 244 236 246 251 266 319 268 271 284 347 125 125 123 135 119 126 128 131 130 137 138 144 150 150 145 149 151 148 140 142 146 142 146 146 143 131 129 137 145 140 137 136 135 135 132 130 133 137
248 252 257 250 238 246 234 223 253 271 282 274 273 277 268 109 125 127 116 127 133 134 132 131 133 138 138 135 132 139 142 146 145 144 139 151 140 141 142 142 135 133 134 129 124 130 131 131 128 127 125 124 127 129
245 234 237 238 256 272 272 272 288 290 287 295 273 165 119 73 91 120 120 126 128 126 132 138 139 141 140 143 142 142 137 141 147 148 141 143 134 133 137 138 133 132 132 134 136 134 133 129 129 129 129 129 132 127
236 247 258 271 274 297 315 239 214 115 65 42 29 67 97 84 77 60 108 132 126 136 134 135 131 140 140 137 133 135 141 146 156 145 148 141 141 133 131 141 140 136 138 132 133 137 135 135 135 133 129 125 120 123
246 253 254 275 280 233 192 169 81 58 61 41 16 34 38 38 62 67 116 128 126 128 129 125 126 120 123 123 128 133 125 142 148 141 147 149 137 137 134 135 132 131 137 141 142 138 133 130 128 134 135 129 126 130